Torna al catalogo

KUIPER-00420

AttivoComunicazioniLEO
NORAD 68932·PAYLOAD·🇺🇸 United States

Lanciato Apr 30, 2026 da Guiana Space Centre

Loading…

Prossimi Passaggi (prossime 24 ore)

TLE

AggiornatoSource: CelesTrak SupGP

Epoca: Sep 14, 2026, 21:27 UTC

1 68932C 26098P   26257.89416667  .00003321  00000+0  43478-3 0  2576
2 68932  51.9013   8.9470 0000508 100.1182 243.2694 14.79916974    11

Traccia KUIPER-00420 in tempo reale con AllMySat

Download on the App Store